Simultaneous Nadir Overpasses (SNOs) Predictions

Prediction of SNOs between GOES-17 and LANDSAT-8 Satellite Orbit:

Table of predicted SNOs for the next 14.0 days since TLE Epoch: 1/27/2024
Index Date Time (GOES-17) GOES-17 Lat,Lon LANDSAT-8 Lat,Lon Distance(km) Time Diff (sec)
1 01/27/2024 17:06:36 0.01,-104.67 -0.28,-103.26 159.32 80
2 01/28/2024 05:28:01 -0.01,-104.67 -0.80,-108.46 431.45 80
3 01/29/2024 16:54:26 0.02,-104.67 -0.89,-100.31 495.07 80
4 01/30/2024 05:15:51 -0.02,-104.67 -0.18,-105.51 95.72 80
5 02/01/2024 05:01:01 -0.02,-104.67 0.45,-102.56 240.18 80
6 02/01/2024 17:22:16 0.02,-104.67 0.69,-107.71 346.49 80
7 02/03/2024 17:10:06 0.02,-104.67 0.03,-104.77 10.81 80
8 02/05/2024 17:00:35 0.02,-104.67 -0.60,-101.82 324.67 80
9 02/06/2024 05:21:58 -0.01,-104.67 -0.51,-107.01 265.59 80
10 02/08/2024 05:07:06 -0.02,-104.66 0.09,-104.04 69.71 80
